Meteo Giornale » Osservazioni meteo Italia » Firenze-Peretola

ore: 08:20 - Osservazioni Meteo Firenze-Peretola
Lat. 43° 48' N Lon. 11° 12' E Alt. 40 metri s.l.m.

nuvoloso Europe/Rome

22 °C

Nuvoloso

Temp. 24 Ore

19 °C

29 °C

Nord

0 Km/h

Dew point 16 °C

Umidità 68 %

Visibilità  10 Km

Il sole sorge alle ore 05:57

Il sole tramonta alle ore 20:45

Data e Ora Cielo e Fenomeni T °C DP °C Um. % Pres. hPa Vis. km Vento km/h
Oggi h: 08:20 nuvoloso Nuvoloso 22 16 68 1011 10 N 0
Oggi h: 07:50 nuvoloso Nuvoloso 20 16 77 1010 10 N 5.5
Oggi h: 07:20 poco_nuvoloso Poco Nuvoloso 20 17 82 1010 10 N 3.7
Oggi h: 06:50 poco_nuvoloso Poco Nuvoloso 19 17 88 1010 10 N 5.5
Oggi h: 05:50 nuvoloso Nuvoloso 19 17 88 1009 10 N 0
Oggi h: 05:20 poco_nuvoloso Poco Nuvoloso 19 16 82 1009 10 N 3.7
Oggi h: 04:50 nuvoloso Nuvoloso 20 17 82 1009 10 SE 7.4
Oggi h: 04:20 nuvoloso Nuvoloso 21 17 77 1009 10 SE 7.4
Oggi h: 03:50 nuvoloso Nuvoloso 20 17 82 1009 10 N 5.5
Oggi h: 03:20 nuvoloso Nuvoloso 19 17 88 1009 10 N 5.5
Oggi h: 02:50 poco_nuvoloso Poco Nuvoloso 19 17 88 1009 10 E 9.3
Oggi h: 02:20 sereno Sereno 19 16 82 1009 10 E 9.3
Oggi h: 01:50 sereno Sereno 19 16 82 1009 10 E/SE 9.3
Oggi h: 01:20 sereno Sereno 19 16 82 1008 10 E 7.4
Oggi h: 00:50 sereno Sereno 19 16 82 1008 10 E/NE 7.4
Oggi h: 00:20 sereno Sereno 21 17 77 1008 10 N 3.7
Ieri h: 23:50 sereno Sereno 21 17 77 1008 10 N 1.8
Ieri h: 23:20 sereno Sereno 22 17 73 1008 10 N 1.8
Ieri h: 22:50 sereno Sereno 23 17 68 1008 10 SO 9.3
Ieri h: 22:20 sereno Sereno 24 17 64 1007 10 SO 11.1
Ieri h: 21:50 sereno Sereno 24 17 64 1007 10 S/SO 11.1
Ieri h: 21:20 sereno Sereno 25 16 57 1007 10 SO 13
Ieri h: 20:50 sereno Sereno 25 15 53 1006 10 O/SO 7.4
Ieri h: 20:20 sereno Sereno 26 14 47 1006 10 O 9.3
Ieri h: 19:50 sereno Sereno 27 12 39 1006 10 O 9.3
Ieri h: 19:20 sereno Sereno 27 14 44 1005 10 O 13
Ieri h: 18:50 sereno Sereno 28 13 39 1005 10 O/SO 16.7
Ieri h: 18:20 nuvoloso Nuvoloso 27 12 39 1005 10 O/SO 14.8
Ieri h: 17:50 nuvoloso Nuvoloso 29 13 37 1005 10 O/SO 16.7
Ieri h: 17:20 poco_nuvoloso Poco Nuvoloso 28 12 37 1005 10 O/SO 18.5
Ieri h: 16:50 poco_nuvoloso Poco Nuvoloso 29 12 35 1005 10 O/NO 14.8
Ieri h: 16:20 poco_nuvoloso Poco Nuvoloso 29 11 32 1005 10 O 18.5
Ieri h: 15:50 nuvoloso Nuvoloso 28 12 37 1005 10 O/SO 14.8
Ieri h: 15:20 nuvoloso Rovescio nelle Vicinanze 28 13 39 1005 10 O/SO 14.8
Ieri h: 14:50 nuvoloso Nuvoloso 29 13 37 1004 10 O/SO 18.5
Ieri h: 13:50 nuvoloso Nuvoloso 28 13 39 1005 10 O 9.3
Ieri h: 13:20 poco_nuvoloso Poco Nuvoloso 28 14 42 1005 10 NO 7.4
Ieri h: 12:50 poco_nuvoloso Poco Nuvoloso 28 15 45 1005 10 N 7.4
Ieri h: 12:20 poco_nuvoloso Poco Nuvoloso 28 15 45 1005 10 N 5.5
Ieri h: 11:50 poco_nuvoloso Poco Nuvoloso 26 14 47 1006 10 N 7.4
Ieri h: 11:20 poco_nuvoloso Poco Nuvoloso 26 15 50 1006 10 N 7.4
Ieri h: 10:50 poco_nuvoloso Poco Nuvoloso 26 15 50 1006 10 N 1.8
Ieri h: 10:20 poco_nuvoloso Poco Nuvoloso 24 15 57 1006 10 N 3.7
Ieri h: 09:50 sereno Sereno 23 15 60 1006 10 N 3.7
Ieri h: 09:20 sereno Sereno 22 16 68 1006 10 N 1.8
Ieri h: 08:50 sereno Sereno 21 16 73 1006 10 N 0